Wind_Speed
27 25 25 24 26 25 23 21 20 17 14 14 12 12 10 9 6 10 9 9 4 3 2 2 2 4 3 2 3 3 2 1 2 3 2 2 2 2 2 2 2 1 0 2 0 1 2 8 1 1 6 8 7 7
28 28 25 28 27 26 24 21 21 18 15 14 12 12 11 7 9 7 7 15 15 6 3 5 9 7 6 6 5 1 3 2 2 3 1 2 2 1 2 2 2 1 1 2 2 2 3 4 8 6 5 8 6 8
33 28 26 27 29 27 26 23 21 17 14 14 13 13 11 8 5 5 12 9 12 4 4 4 4 5 8 9 7 4 0 3 2 1 2 2 3 2 2 1 2 2 1 3 4 3 4 6 7 6 7 10 10 10
32 32 29 28 29 29 26 24 21 17 14 15 13 14 11 8 8 11 9 7 8 3 3 1 3 4 6 8 12 10 7 5 4 1 2 2 2 1 2 2 1 0 1 5 3 7 6 3 5 9 10 12 12 12
33 34 31 31 30 30 27 26 22 20 16 16 14 15 12 9 11 16 17 14 9 4 3 3 2 5 9 10 12 9 9 3 1 2 2 1 2 2 2 2 1 2 4 3 3 9 3 5 8 8 9 9 9 11
35 39 36 32 31 29 28 27 23 20 17 17 16 16 15 18 18 6 3 8 9 8 4 2 1 1 6 12 13 10 6 3 2 2 1 1 0 1 2 1 3 3 1 0 2 6 4 11 8 6 9 8 10 12
40 38 36 32 33 31 31 28 23 21 22 21 19 18 16 8 7 7 3 3 6 4 3 3 2 2 3 4 3 3 4 2 2 1 1 1 1 2 2 2 8 5 6 9 12 13 8 9 5 9 13 13 13 13
41 39 34 35 34 34 33 29 25 21 22 22 20 18 19 17 13 9 11 9 6 8 3 3 2 2 4 2 2 2 2 2 3 1 1 1 1 0 2 4 9 9 11 11 5 2 7 13 15 12 13 14 10 8
41 37 38 36 34 35 34 30 25 24 23 22 21 18 11 6 4 5 8 9 11 6 3 2 4 3 2 2 1 2 2 1 1 0 1 1 0 3 3 13 13 14 10 10 8 10 12 14 13 12 12 10 9 8
39 39 39 36 33 36 34 31 27 25 25 25 16 5 2 2 17 8 3 3 4 3 2 2 0 3 2 0 1 1 1 1 1 1 1 1 3 1 2 10 12 12 12 14 13 8 9 11 12 12 11 10 9 11
41 42 36 35 37 37 36 32 28 28 25 4 3 2 8 9 3 2 2 2 0 2 1 2 1 4 1 3 2 0 2 0 1 1 1 1 3 2 5 9 10 12 16 13 6 10 13 12 13 11 10 11 12 12
41 41 39 38 35 36 36 33 28 12 5 6 13 9 5 2 2 3 1 1 1 3 2 4 2 2 2 1 3 1 2 1 1 0 1 2 3 2 5 9 11 13 14 10 9 12 13 14 15 14 13 12 12 12
42 40 39 38 37 36 33 28 13 15 26 8 4 3 2 1 3 4 5 2 3 3 4 3 2 2 2 2 3 2 2 2 0 1 2 4 1 3 6 7 9 11 13 12 11 12 13 14 13 14 14 13 16 15
41 39 37 38 36 34 29 21 18 15 4 3 3 4 2 1 2 3 1 2 1 3 5 2 3 2 1 3 1 3 0 0 2 1 4 2 3 5 7 6 8 8 10 12 12 14 16 17 16 16 17 19 19 17
39 36 36 38 38 31 25 16 14 5 4 3 3 3 1 2 0 1 1 2 1 3 3 3 3 2 2 3 1 3 2 2 4 3 2 2 2 6 7 5 6 7 8 10 14 15 18 20 19 17 17 17 15 16
38 36 36 36 31 24 18 12 12 3 3 2 3 2 0 1 1 1 1 2 2 2 2 3 3 3 2 3 2 3 5 4 3 2 1 3 2 5 5 5 8 12 13 14 16 19 20 21 21 20 18 16 15 15
26 17 35 32 26 22 11 6 4 4 2 3 2 1 1 2 1 2 2 2 3 1 2 2 4 3 3 2 1 3 4 3 2 1 1 2 4 5 6 10 13 15 15 16 18 18 18 17 19 18 14 15 15 13
31 37 33 29 28 14 6 6 3 2 4 2 2 1 1 1 1 3 2 2 1 2 1 2 4 3 4 4 2 3 3 2 3 2 2 1 3 9 14 12 16 17 17 18 19 19 19 20 16 12 13 15 13 12
38 34 29 25 13 6 2 3 3 2 1 0 1 0 1 1 2 1 1 3 3 2 3 2 3 2 3 3 3 2 2 3 2 1 0 2 4 9 13 15 17 17 18 19 17 15 16 19 14 14 14 15 11 11
36 30 21 12 4 4 3 2 2 2 1 1 1 2 2 2 1 1 2 2 2 1 1 1 3 3 3 2 3 2 2 3 3 2 1 1 3 10 12 15 13 15 15 13 12 14 12 11 10 14 15 13 10 9
25 17 10 4 5 7 3 1 2 2 1 2 1 1 2 1 2 2 2 2 1 1 2 3 3 0 1 1 1 1 3 7 3 1 2 3 6 8 9 10 15 14 13 14 14 12 14 13 15 15 15 14 12 9
9 11 5 6 5 4 3 4 2 1 2 1 2 2 2 1 1 0 1 1 2 2 1 1 1 0 1 1 1 1 2 7 6 6 8 12 4 6 9 12 14 12 12 13 14 14 14 15 13 14 13 11 9 8
12 6 4 5 4 4 1 2 2 2 2 1 1 1 2 1 1 1 1 2 2 1 2 2 2 2 3 3 5 5 5 6 4 4 5 3 5 8 10 13 12 13 11 12 14 14 14 13 12 12 9 8 7 7
6 4 3 3 3 1 1 1 2 2 1 1 1 1 2 1 2 1 2 1 1 3 2 4 0 2 4 3 1 2 3 5 7 5 4 5 5 4 8 11 13 13 11 11 14 12 11 12 11 10 9 9 8 5
4 3 4 3 1 3 2 1 2 2 2 3 3 2 2 1 2 2 2 1 3 2 3 4 2 1 1 1 0 2 3 7 6 4 5 3 7 8 6 7 8 8 9 12 13 12 11 11 10 11 10 8 5 3
3 2 3 4 1 3 3 2 3 4 3 4 4 1 1 2 2 4 2 1 1 2 4 5 4 1 1 2 1 3 4 6 6 5 5 5 8 10 9 9 7 7 10 8 11 11 10 10 12 11 9 6 4 2
2 2 2 1 2 2 1 0 1 2 3 4 2 3 2 2 5 2 0 2 2 5 9 9 7 4 0 4 6 6 7 7 3 7 10 7 6 4 9 10 8 6 9 8 8 7 8 11 12 9 8 6 5 4
3 2 4 3 1 1 3 2 4 5 3 2 3 3 5 5 1 1 1 3 9 9 6 5 4 4 6 7 9 12 13 14 17 18 17 16 13 12 10 11 13 12 11 10 8 7 8 9 9 10 10 10 9 7
2 2 3 2 1 1 2 3 2 1 2 1 2 2 2 1 2 2 4 10 8 4 1 4 7 10 13 12 10 13 16 14 7 4 5 4 4 10 14 15 14 13 12 12 11 11 12 13 14 14 13 12 11 8
3 2 2 2 3 4 1 0 2 1 2 2 2 2 2 1 3 5 6 6 7 6 4 4 7 8 9 11 13 13 10 7 5 6 5 4 8 17 15 14 14 13 12 14 17 17 15 16 15 14 12 10 8 6
3 2 2 2 1 1 1 3 3 3 2 2 2 2 2 2 2 10 13 7 3 4 7 10 11 9 12 11 9 10 7 8 8 7 10 18 22 18 16 15 15 15 15 16 16 15 15 14 13 11 10 9 8 7
2 2 3 3 1 1 2 1 1 2 1 1 1 2 1 1 1 5 15 7 6 10 8 11 14 11 11 11 11 12 14 14 16 19 22 22 21 19 18 16 15 14 15 15 14 13 11 12 11 10 9 8 7 7
2 2 2 2 2 2 1 1 1 1 1 1 1 1 1 1 2 2 6 9 8 11 14 15 15 15 16 17 19 20 21 22 21 21 20 20 19 17 16 15 14 13 14 14 13 12 11 10 11 10 9 7 7 7
Wind_Direction
196 190 182 184 176 170 167 166 159 152 154 159 162 150 127 110 118 114 70 64 106 89 54 33 127 126 97 108 138 161 110 1 67 85 138 145 119 97 133 40 311 30 0 84 190 128 182 359 180 307 101 99 108 96
193 188 184 181 171 172 170 167 165 160 154 157 153 149 131 132 117 104 84 74 87 79 109 80 77 81 94 150 128 94 128 120 148 109 141 119 127 72 141 194 21 269 356 140 22 103 84 25 82 80 129 133 128 124
188 186 180 179 176 172 171 167 164 159 152 155 153 148 149 134 99 116 105 87 89 85 62 50 21 89 111 92 78 116 243 142 127 168 134 113 110 162 141 185 156 83 25 90 172 137 115 112 88 88 104 116 118 124
179 182 180 176 171 169 169 162 159 160 152 152 150 145 145 119 114 127 101 75 88 106 102 45 75 53 114 110 78 76 121 90 93 91 88 104 115 222 126 111 151 32 99 125 83 124 113 108 126 125 116 116 112 110
176 179 172 170 172 170 169 162 160 150 152 148 143 142 141 144 116 114 90 64 66 102 132 134 103 45 119 109 92 89 91 93 79 84 68 94 110 144 82 103 163 202 161 178 205 166 141 159 158 140 122 118 120 119
180 174 172 169 168 169 167 160 152 144 156 143 133 142 141 136 130 120 50 41 55 92 100 101 316 63 106 110 89 71 64 73 72 87 95 100 273 107 125 168 145 162 163 209 168 119 97 124 125 120 114 114 109 102
166 171 170 171 169 164 157 149 152 154 148 144 136 135 143 133 81 64 111 109 66 65 90 104 103 21 82 101 54 52 47 66 65 97 77 103 120 80 142 210 170 142 115 115 117 111 98 148 154 132 118 111 101 97
163 158 158 163 162 158 148 149 148 148 146 141 130 121 113 104 81 60 71 41 57 88 64 106 95 105 14 68 80 359 65 38 29 74 129 126 137 118 231 151 147 145 131 136 130 32 138 124 126 123 123 123 114 115
163 161 157 155 157 157 154 148 146 148 146 135 126 116 94 50 60 116 90 51 55 72 110 97 136 154 16 76 69 59 33 76 328 106 78 294 159 227 204 168 167 160 161 151 117 119 132 140 140 141 144 145 141 143
152 152 153 155 154 152 147 147 146 148 140 134 130 66 51 82 123 109 36 23 20 354 45 89 335 119 100 109 75 107 15 98 152 55 26 220 261 264 155 178 167 168 147 145 131 143 144 150 157 161 165 161 161 161
151 151 153 152 149 147 146 143 148 144 140 94 82 79 129 105 67 36 60 76 60 49 53 109 156 127 332 114 133 293 137 56 118 123 268 283 270 221 169 167 166 161 160 170 153 163 171 167 165 163 160 158 157 158
147 146 145 145 144 147 146 144 147 146 150 136 118 117 101 87 91 96 82 123 204 167 141 139 160 105 113 110 106 183 107 35 151 112 225 268 254 179 164 162 162 164 155 143 143 149 155 160 165 160 155 152 154 156
146 146 146 145 147 145 143 144 146 138 131 116 76 85 95 15 106 147 167 182 181 163 165 167 132 110 109 65 70 111 100 190 322 151 235 237 246 184 168 144 138 148 142 133 129 138 141 141 149 154 150 158 155 147
143 144 145 145 146 143 136 142 151 145 71 63 96 116 119 141 205 187 196 160 143 133 148 127 101 96 84 69 110 103 114 133 76 225 238 256 243 179 167 148 140 155 144 142 142 143 141 143 147 156 162 162 156 155
139 138 141 143 139 135 133 120 145 60 58 72 45 89 102 225 247 167 151 148 116 150 136 106 74 81 47 94 51 110 78 216 210 229 235 269 274 166 159 146 141 144 144 143 151 145 148 151 148 145 156 157 161 166
131 129 138 143 141 132 128 104 115 56 63 66 52 93 34 140 104 116 128 92 151 154 127 58 97 67 61 127 120 196 151 222 249 222 266 316 211 174 158 151 147 151 153 154 158 156 156 159 159 157 158 167 171 177
122 129 140 137 138 131 127 82 63 49 89 64 62 349 64 58 84 68 35 66 139 90 104 111 88 171 110 91 193 188 204 219 226 226 292 258 221 187 155 146 152 154 154 156 155 160 160 160 159 157 164 176 179 184
124 135 133 138 133 114 51 46 76 63 60 42 85 4 33 23 51 59 31 27 84 64 81 119 129 107 156 166 228 238 237 246 234 275 335 273 226 186 175 163 166 165 162 164 165 161 161 164 167 180 179 179 184 195
132 140 136 130 120 109 77 42 31 85 51 12 276 340 42 58 50 40 31 18 52 81 106 58 83 170 218 213 210 224 232 211 210 165 294 273 215 185 175 172 167 165 166 166 166 169 175 181 183 179 179 180 194 203
128 132 138 135 106 85 78 45 33 99 117 255 58 65 68 59 18 11 19 36 59 94 94 174 211 213 193 219 197 194 173 154 142 150 208 181 176 168 171 169 170 167 160 163 166 172 170 176 186 189 188 189 193 211
124 126 124 96 64 58 81 63 56 53 106 68 352 57 67 40 34 28 49 355 70 136 213 233 230 244 146 56 89 143 170 171 183 179 159 164 181 171 166 169 167 164 165 172 175 183 185 193 191 191 194 205 220 233
120 127 75 42 67 51 71 22 92 59 52 47 34 36 27 14 22 351 129 69 238 260 211 296 326 341 183 217 175 186 196 163 132 115 111 126 141 166 179 176 167 175 181 186 187 189 195 199 193 195 206 219 226 237
108 96 50 42 71 44 27 321 69 36 99 176 69 32 325 317 234 150 43 247 270 309 317 324 348 10 122 106 110 103 137 150 144 153 153 150 155 172 167 177 185 175 178 197 199 196 195 191 189 192 204 217 211 199
98 57 62 49 58 95 12 94 117 121 114 132 99 282 256 223 139 58 282 256 305 324 353 356 42 71 72 79 89 155 142 154 136 132 150 144 136 157 177 179 189 200 198 188 183 185 184 183 193 199 201 188 189 214
77 329 91 1 68 92 77 19 169 111 153 188 191 251 186 155 174 210 247 299 345 25 4 355 8 20 174 148 153 160 159 170 157 144 163 169 137 127 124 155 173 181 172 160 170 179 185 190 194 192 188 193 203 208
87 251 121 177 219 130 179 133 189 191 149 168 216 236 90 125 206 234 219 321 307 357 2 344 331 320 58 49 136 172 179 175 155 113 150 168 175 162 153 152 155 171 175 173 173 177 189 197 192 183 183 183 183 191
86 245 208 251 121 139 69 101 102 115 175 202 197 163 124 184 234 226 90 31 335 334 326 322 315 302 203 128 112 115 138 156 161 134 132 129 134 150 162 153 162 156 170 178 187 197 187 173 170 168 155 140 125 110
195 159 159 208 172 187 172 171 180 207 224 205 123 177 189 198 209 54 314 331 335 336 345 11 42 90 117 126 129 124 115 120 119 115 106 94 99 112 117 118 121 124 125 124 126 136 146 153 151 148 140 127 113 104
210 219 113 134 135 219 229 217 222 77 7 229 203 170 148 57 22 332 316 328 331 340 49 68 75 106 108 112 110 118 127 130 130 107 102 108 91 88 114 117 117 116 115 115 110 111 118 123 126 127 122 118 109 99
240 155 136 147 174 219 224 143 160 159 42 73 101 99 82 80 33 21 13 27 47 66 77 99 133 132 118 113 108 93 91 86 97 134 142 147 143 135 127 122 118 115 117 120 119 115 115 115 116 115 112 106 97 79
125 108 95 94 184 218 175 121 102 86 64 74 29 96 121 138 117 31 26 28 63 109 115 104 99 113 127 125 121 115 92 75 88 104 129 136 134 129 126 120 117 117 117 116 118 120 121 118 112 110 103 92 78 64
64 129 142 163 183 119 161 162 127 101 94 101 87 103 126 136 108 25 9 32 95 92 95 111 106 95 106 108 107 106 110 110 112 119 126 126 124 122 119 116 117 117 116 116 116 117 116 112 109 103 96 87 73 58
87 77 82 112 135 175 159 140 76 103 81 98 93 74 59 66 116 40 21 41 92 114 114 109 109 111 112 111 111 112 112 111 114 116 118 118 118 118 116 114 115 115 115 113 111 110 109 107 102 96 87 77 70 60
Height
671 677 683 688 693 698 703 707 711 714 717 720 724 725 727 728 730 729 733 731 733 750 760 759 760 765 771 773 776 784 787 786 788 786 783 789 786 789 789 792 793 793 789 793 791 791 794 819 813 806 821 825 828 832
668 675 681 687 692 698 704 708 712 716 719 723 725 727 729 733 732 733 734 735 736 744 759 761 763 764 765 768 775 783 782 783 785 787 791 790 789 796 789 799 796 795 797 794 804 808 821 824 823 824 825 828 832 834
666 673 680 686 692 698 704 708 713 717 721 724 727 729 734 734 733 735 735 739 741 752 762 764 768 767 769 769 770 776 784 783 784 787 789 791 789 793 792 800 794 801 801 804 810 820 823 826 828 829 830 832 835 838
663 671 679 686 692 699 705 710 715 719 722 726 730 731 735 736 737 736 738 743 743 751 765 772 770 771 771 772 772 773 777 781 785 787 787 789 786 794 792 794 796 802 803 806 813 818 824 828 829 832 834 836 839 843
662 671 679 686 693 700 706 711 717 721 724 729 731 733 737 740 739 741 743 746 746 750 765 772 773 775 774 774 775 778 778 782 786 785 788 789 793 793 798 800 801 803 804 805 804 809 813 822 828 830 833 837 840 842
661 670 679 687 694 701 707 713 719 723 727 729 732 736 740 741 742 742 749 750 750 751 761 773 778 777 777 777 778 780 782 786 787 788 791 793 795 794 796 796 803 804 805 805 807 811 816 822 828 831 833 837 841 843
662 671 679 687 695 702 709 716 722 726 729 733 736 739 743 744 744 747 753 755 754 754 761 774 777 778 777 778 783 785 786 789 789 793 792 793 793 795 800 794 801 804 807 809 811 814 823 826 829 833 836 839 843 845
663 672 680 689 697 704 711 718 724 729 732 735 739 743 745 746 750 753 756 756 756 757 762 773 779 780 779 784 786 790 789 791 793 795 796 791 795 796 791 799 802 805 809 812 814 814 816 824 831 836 839 842 845 848
666 674 683 692 699 707 714 721 727 732 735 738 742 746 749 752 755 758 759 759 759 762 769 775 774 781 781 788 790 791 793 792 799 794 793 795 794 788 785 794 799 802 805 810 816 818 822 825 831 837 840 843 846 849
671 679 688 696 703 710 717 725 730 735 738 743 747 748 758 758 758 760 763 764 765 767 769 775 781 776 783 789 792 794 798 795 791 796 798 794 787 789 789 791 795 800 804 809 815 822 825 828 831 835 837 842 845 849
676 684 693 700 707 714 721 728 735 739 742 744 749 756 757 759 761 764 770 772 773 774 773 777 778 777 784 783 789 797 795 800 793 794 791 794 789 787 790 792 796 800 803 807 809 814 819 822 827 833 838 842 846 849
682 691 698 705 712 718 726 733 738 741 743 745 747 754 759 762 765 766 768 771 769 768 774 776 778 778 784 785 786 797 795 800 793 802 792 791 785 789 790 792 796 800 804 809 811 815 819 823 828 832 837 842 846 849
689 696 703 710 717 724 731 738 741 743 745 747 750 756 760 766 765 771 767 766 764 771 775 777 779 778 785 786 795 792 797 800 803 792 796 788 789 790 792 794 798 802 805 809 814 817 821 825 829 833 838 843 845 848
694 702 708 715 722 729 736 741 744 746 746 750 757 760 764 769 766 767 761 762 767 768 772 774 777 775 787 789 801 793 803 802 805 802 791 784 786 789 793 795 799 802 805 810 814 818 822 826 830 834 837 841 843 847
701 708 715 723 729 735 741 744 746 747 749 755 756 765 762 766 766 764 765 764 768 770 770 773 777 780 791 795 799 801 802 801 797 788 786 786 790 790 793 796 800 804 807 811 815 819 823 827 831 835 839 842 845 849
708 716 723 729 734 740 744 746 749 751 756 760 764 764 765 762 762 762 762 763 769 769 770 771 782 788 790 792 792 796 793 795 785 788 788 791 791 791 793 796 800 804 807 811 815 819 823 827 831 834 839 842 845 848
713 721 729 734 739 745 748 749 752 758 761 763 768 768 767 768 765 763 763 766 769 769 774 776 785 786 790 792 794 793 792 785 785 787 787 790 790 791 794 797 801 804 808 812 816 820 824 828 832 835 839 842 845 848
718 729 734 739 745 748 751 754 758 761 765 771 768 769 769 769 767 767 769 769 768 768 770 775 779 786 796 793 791 786 787 789 787 787 789 791 791 791 793 796 800 804 808 812 816 820 824 828 832 836 839 842 845 847
727 734 741 746 749 752 756 761 762 766 770 771 773 772 771 771 772 772 771 770 770 771 773 778 783 784 784 786 781 783 787 784 784 787 791 791 791 792 794 797 801 804 808 811 816 819 823 826 829 833 836 839 842 844
735 742 746 748 749 753 760 765 765 765 769 772 771 772 774 775 775 775 774 773 773 774 776 778 780 779 779 777 777 777 779 781 785 786 787 791 792 793 795 797 801 804 809 813 817 819 823 827 830 832 834 837 839 841
742 747 750 750 752 756 762 766 768 771 771 772 772 772 776 775 777 778 777 776 776 777 776 774 774 775 776 777 777 778 779 780 781 781 782 788 792 793 796 798 800 804 807 811 814 818 821 823 826 829 832 834 836 837
748 751 753 754 758 762 767 770 771 773 774 775 775 775 778 780 780 780 780 780 779 777 778 777 776 776 777 777 777 778 779 780 782 784 784 786 790 793 795 796 800 802 805 808 811 814 817 820 824 826 829 831 833 834
753 755 757 760 766 771 777 772 773 774 780 777 777 778 779 780 781 780 781 780 780 781 780 779 778 777 777 778 779 780 781 781 783 785 786 786 786 788 791 794 797 800 803 806 809 812 815 819 822 825 827 828 830 831
757 759 766 771 772 781 776 776 772 774 776 777 782 783 781 778 777 777 776 781 783 782 780 779 779 779 779 780 781 782 782 782 783 785 787 787 788 790 791 793 796 799 801 803 807 811 815 818 820 822 824 826 828 830
764 772 774 786 773 780 780 782 772 776 787 782 780 781 775 777 776 779 778 783 782 781 781 781 780 779 779 780 782 782 783 783 784 786 788 788 789 791 793 795 798 800 802 804 807 811 814 816 818 821 823 825 827 828
775 775 780 781 783 779 781 789 781 780 790 779 779 781 781 781 781 779 782 788 787 785 785 784 782 781 781 781 782 783 784 785 785 786 789 789 790 790 793 796 799 801 803 805 807 810 812 814 817 819 822 824 826 828
778 779 771 770 769 770 778 778 776 779 783 780 781 783 784 788 785 786 789 789 789 788 787 785 783 781 781 782 783 783 784 785 786 787 789 791 792 793 795 797 799 801 802 805 807 809 811 813 816 819 822 824 826 827
770 770 772 772 773 771 776 778 781 780 778 774 774 775 782 780 782 789 790 790 789 787 786 784 783 782 782 783 784 785 786 787 789 790 792 794 795 796 798 799 801 803 804 806 808 810 812 814 817 819 822 824 826 828
767 768 769 774 772 771 771 768 767 773 776 772 768 771 783 790 792 791 790 789 787 787 786 786 786 785 785 786 787 788 790 792 792 794 796 798 800 802 802 803 805 806 807 808 811 812 814 816 818 821 823 826 828 829
766 765 767 770 772 769 775 776 778 780 780 781 783 787 790 793 793 792 790 789 788 787 787 787 787 788 789 790 791 793 794 794 794 795 796 799 801 804 806 807 808 809 811 812 813 816 818 820 822 824 826 828 829 830
762 765 769 772 774 778 777 778 779 780 782 784 785 786 789 792 793 793 791 790 790 789 789 789 789 790 791 793 794 794 795 796 795 796 796 798 802 806 808 810 812 813 815 816 818 820 822 824 825 827 828 829 830 830
764 765 768 772 775 777 777 777 778 781 784 784 786 788 791 790 791 795 794 792 792 791 792 792 792 794 794 794 795 795 796 798 799 800 802 804 807 810 812 814 816 817 818 820 822 824 825 826 827 829 830 830 831 831
770 771 772 774 775 774 777 776 777 781 782 783 786 789 791 790 792 799 798 795 795 794 795 795 796 797 798 799 799 800 802 803 805 807 809 811 813 815 817 818 820 821 822 824 825 827 828 829 829 830 831 832 832 832